User: anonymous   Login
Location: Go?cza
(50.3372°N, 19.9313°E)
Time: 18:54:42
(UTC+00:00)
Language:

ALOS - Orbit

View from above orbital plane
View from above orbital plane
View from above satellite
View from above satellite

Ground track
Ground track

The orbit data is extracted from the following two-line orbital elements,

1 28931U 06002A   24202.46672562  .00003326  00000-0  61514-3 0  9993
2 28931  98.0377 154.8216 0002381  70.2863 289.8597 14.66019221986223
Epoch (UTC): 20 July 2024 11:12:05
Eccentricity: 0.0002381
inclination: 98.0377°
perigee height: 672 km
apogee height: 675 km
right ascension of ascending node: 154.8216°
argument of perigee: 70.2863°
revolutions per day: 14.66019221
mean anomaly at epoch: 289.8597°
orbit number at epoch: 98622

The dashed part of the orbit path shows where the satellite is in the earth's shadow,  

DLR